STAR ONE D1 (41904 NORAD) Tracking and Keplerian Element Data

This shows tracking and keplerian element data for the satellite.

Feedback or suggestion? Click here.




ElementValue
Catalog41904
NameSTAR ONE D1
Epoch Orbit1748
Epoch Day268.95714521
Epoch Year2021
RAAN138.1423
Inclination0.0279
Eccentricity0.0001943
Argument of Perigee39.9918
Mean Anonmoly87.4599
Mean Motion1.00263363
Decay Rate-2.13E-06
L11 41904U 16082B 21268.95714521 -.00000213 00000-0 00000+0 0 9994
L22 41904 0.0279 138.1423 0001943 39.9918 87.4599 1.00263363 17482

Live tracking and technical data element details for STAR ONE D1 (NORAD 41904). STAR ONE D1 can be tracked NOW for your location showing map with azimuth and elevation plus other details from your city location.

Track the satellite on the map from your city or location and see movement details for azimuth, elevation, latitude, longitude, range, height, and movement on the map or in text.







IsCatalogInMostPopularTable: catalog: 41904, numindb: 596
Update: records affected: 1



GetName: 41904 STAR ONE D1

Hit Count: updated at: Mon, 27 Sep 2021 01:11:39 GMT